CAPE
0 0 0 0 0 0 0 0 0 0 0 0 0 0 0 0 0 0 0 0 2 1
0 0 0 0 0 0 0 0 0 0 0 0 0 0 0 0 0 0 0 0 0 2
0 0 0 0 0 0 0 0 0 0 0 0 0 0 0 0 0 0 0 0 1 0
0 0 0 0 0 0 0 0 0 0 0 0 0 0 0 0 0 0 0 0 0 0
0 0 0 0 0 0 0 0 0 0 0 0 0 0 0 0 0 0 0 0 0 0
0 0 0 0 0 0 1 0 1 1 1 1 1 0 0 0 0 0 0 0 0 0
0 0 1 1 1 1 1 1 1 2 1 1 2 1 0 1 0 0 0 0 3 4
0 1 2 4 5 4 2 3 3 2 2 2 3 2 1 1 0 0 0 2 4 3
1 2 4 6 3 7 3 1 7 4 3 3 4 1 5 8 6 5 3 4 1 0
3 2 4 6 6 4 2 6 2 1 3 2 4 3 6 7 1 5 7 7 1 0
3 3 3 3 2 3 4 2 1 1 2 2 3 3 2 1 0 2 4 7 2 1
2 1 0 0 0 0 1 0 0 2 0 1 0 3 2 0 0 2 5 7 8 0
0 0 0 0 0 0 0 0 0 0 0 2 2 3 2 0 0 2 5 6 0 0
0 0 0 0 0 0 0 0 0 0 0 0 1 0 2 2 0 1 2 3 0 0
CIN
0 0 0 0 0 0 0 0 0 0 0 0 0 0 0 0 0 0 0 0 -1 0
0 0 0 0 0 0 0 0 0 0 0 0 0 0 0 0 0 0 0 0 0 0
0 0 0 0 0 0 0 0 0 0 0 0 0 0 0 0 0 0 0 0 0 0
0 0 0 0 0 0 0 0 0 0 0 0 0 0 0 0 0 0 0 0 0 0
0 0 0 0 0 0 0 0 0 0 0 0 0 0 0 0 0 0 0 0 0 0
0 0 0 0 0 0 0 0 0 0 0 0 0 0 0 0 0 0 0 0 0 0
0 0 0 0 0 0 0 0 0 0 0 0 0 0 0 0 0 0 0 0 0 0
0 0 0 0 0 0 0 0 0 0 0 0 0 0 0 0 0 0 0 0 0 0
0 0 0 0 0 0 0 0 0 0 0 0 0 -1 -2 -1 0 0 0 0 -1 -2
0 0 0 0 0 0 0 0 -1 -1 0 0 0 -1 -1 -2 -3 0 0 -1 -1 0
0 0 0 0 0 0 0 -1 0 -1 -1 -1 0 -2 -5 -6 0 -1 0 0 0 -1
0 0 -1 0 0 0 0 0 -1 0 -1 0 -1 -1 -3 -2 0 -1 0 0 0 0
0 0 0 0 0 -1 0 0 0 0 -1 -1 -1 -1 -3 -5 0 -1 0 -1 0 -2
0 0 0 0 -1 0 0 0 0 0 0 0 -1 -1 -1 -2 -1 0 0 0 0 -1
Wind_Speed
53 52 53 53 54 55 55 55 54 54 54 54 53 53 52 52 52 52 52 53 50 51
53 53 54 54 54 54 54 54 55 55 57 56 55 55 55 55 55 54 54 55 56 54
53 53 53 54 55 55 55 55 55 55 56 56 56 56 56 56 55 56 55 55 56 56
53 54 54 55 55 55 56 55 56 56 55 55 56 55 56 57 57 58 58 56 57 59
54 54 54 55 55 54 56 54 54 54 55 55 55 55 56 58 57 58 59 58 57 59
54 54 53 53 53 52 52 52 52 51 52 52 52 52 52 54 55 57 59 58 59 59
52 52 52 52 52 52 52 53 53 51 52 52 51 50 50 51 52 53 55 56 58 59
52 50 51 51 52 53 53 53 54 55 54 54 53 51 50 50 51 52 54 53 54 57
50 49 49 48 48 49 50 51 52 54 55 55 53 53 54 53 51 51 52 53 53 53
47 43 38 36 37 37 39 41 41 44 48 52 52 52 52 52 52 52 52 52 52 53
33 31 31 30 29 30 29 28 29 31 35 46 48 49 50 50 50 52 54 53 53 53
30 31 30 30 29 29 27 27 27 26 27 43 47 27 52 47 45 48 52 52 53 54
30 30 31 29 27 27 25 25 24 25 23 26 51 37 44 50 47 48 49 50 52 55
30 30 29 27 25 26 25 23 23 22 22 23 34 48 41 45 45 48 48 48 48 49
Wind_Direction
311 309 306 305 302 300 298 296 294 292 290 289 288 287 285 283 280 278 276 274 275 273
312 310 308 305 304 301 299 297 295 292 289 288 286 285 283 281 279 278 275 274 272 272
313 311 309 307 304 302 300 298 295 293 290 288 286 284 282 279 278 276 275 273 271 269
313 311 309 307 305 302 300 298 295 293 291 288 286 284 281 279 277 274 273 272 271 269
312 310 308 306 304 302 299 298 296 293 290 288 286 284 281 278 276 273 271 271 270 268
314 312 310 308 306 304 301 298 296 293 291 289 287 285 282 280 277 274 271 269 268 267
317 315 312 310 307 305 302 298 295 293 290 287 286 284 282 280 278 276 273 270 268 266
319 317 315 313 310 306 302 298 295 291 288 285 284 282 281 279 277 275 273 271 269 266
322 320 318 317 314 311 306 302 297 292 287 283 282 280 278 277 275 274 271 270 268 266
325 323 321 317 315 313 311 308 303 299 292 285 281 280 278 275 273 271 269 268 267 266
321 305 310 309 301 291 289 286 293 297 296 289 284 280 277 274 271 268 265 264 263 263
310 311 303 301 295 291 289 281 273 273 285 290 283 257 269 272 270 265 261 261 260 257
312 307 299 295 295 288 290 283 274 269 264 254 254 237 238 252 260 258 256 256 253 249
307 299 296 294 294 290 288 287 281 275 265 249 235 248 231 231 229 239 247 247 249 245